User: anonymous   Login
Location: Unspecified
(0.0000°N, 0.0000°E)
Time: 13:25:56
(UTC+01:00)
Language:

Iridium 4 Rocket - Orbit

View from above orbital plane
View from above orbital plane
View from above satellite
View from above satellite

Ground track
Ground track

The orbit data is extracted from the following two-line orbital elements,

1 24797U 97020F   15024.90630425  .00000692  00000-0  14503-3 0  8776
2 24797 086.8989 313.4210 0226241 352.0118 048.6573 14.43419536931804
Epoch (UTC): 24 January 2015 21:45:04
Eccentricity: 0.0226241
inclination: 86.8989°
perigee height: 586 km
apogee height: 908 km
right ascension of ascending node: 313.4210°
argument of perigee: 352.0118°
revolutions per day: 14.43419536
mean anomaly at epoch: 48.6573°
orbit number at epoch: 93180

The dashed part of the orbit path shows where the satellite is in the earth's shadow,  

DLR